Regional Weather Roundup
Issued by NWS

Home | Current Version | Previous Version | Text Only | Print | Product List | Glossary Off
Versions: 1 2 3 4 5 6 7 8 9 10 11 12 13 14 15 16 17 18 19 20 21 22 23 24 25 26 27 28 29 30 31 32 33 34 35 36 37 38 39 40 41 42 43 44 45 46 47 48 49 50

000
ASUS43 KMKX 171511
RWRWI

WISCONSIN REGIONAL WEATHER ROUNDUP
NATIONAL WEATHER SERVICE MILWAUKEE/SULLIVAN WI
1000 AM CDT WED SEP 17 2014

NOTE: "FAIR" INDICATES FEW OR NO CLOUDS BELOW 12,000 FEET WITH NO
SIGNIFICANT WEATHER AND/OR OBSTRUCTIONS TO VISIBILITY.

WIZ001-002-006>008-014>016-023>028-171600-
NORTHWEST WISCONSIN

CITY           SKY/WX    TMP DP  RH WIND       PRES   REMARKS
SUPERIOR ARPT  SUNNY     56  48  73 CALM      29.94F
ASHLAND        SUNNY     57  46  66 NE5       29.96R
HAYWARD        SUNNY     58  48  69 VRB5      29.96S
SIREN          SUNNY     61  50  65 SW5       29.95S
RICE LAKE      SUNNY     56  49  79 CALM      29.98S
LADYSMITH      SUNNY     57  49  76 SW5       29.98F
EAU CLAIRE     PTSUNNY   57  49  74 S8        29.97F
MENOMONIE      PTSUNNY   58  51  76 S3        29.98S
NEW RICHMOND   PTSUNNY   62  50  66 SW6       29.96F
OSCEOLA        MOSUNNY   61  53  74 SW3       29.98S
$$

WIZ003>005-009-010-017-018-171600-
NORTH CENTRAL WISCONSIN

CITY           SKY/WX    TMP DP  RH WIND       PRES   REMARKS
WOODRUFF       SUNNY     57  47  71 W6        29.96S
RHINELANDER    SUNNY     56  46  69 W7        29.97S
EAGLE RIVER    SUNNY     58  44  60 W5        29.96S
LAND O LAKES   SUNNY     59  45  58 W5        29.96F
PHILLIPS       SUNNY     56  47  72 SW3       29.96S
TOMAHAWK       MOSUNNY   57  47  68 CALM      29.97F
MEDFORD        MOSUNNY   56  48  73 W6        29.97F
MERRILL        PTSUNNY   55  48  77 W3        29.97F
$$

WIZ029-030-035-036-043>047-171600-
CENTRAL WISCONSIN

CITY           SKY/WX    TMP DP  RH WIND       PRES   REMARKS
WAUSAU         MOSUNNY   55  47  74 S7        29.97F
MOSINEE        SUNNY     55  52  88 SW7       29.99F
MARSHFIELD     MOSUNNY   57  49  74 SW8       29.98F
STEVENS POINT  PTSUNNY   55  45  69 SW7       29.99F
WAUPACA        MOSUNNY   61  50  65 W8        30.00F
WAUTOMA        PTSUNNY   55  48  77 CALM      30.01F
WISC RAPIDS    CLOUDY    55  49  80 VRB5      30.01F
CAMP DOUGLAS   PTSUNNY   57  55  94 W5        30.00F
$$

WIZ011>013-019>022-031-037>040-048>050-171600-
NORTHEAST WISCONSIN

CITY           SKY/WX    TMP DP  RH WIND       PRES   REMARKS
ANTIGO         MOSUNNY   56  47  72 W9        29.98S
STURGEON BAY   MOSUNNY   59  46  63 W8        29.99S
GREEN BAY      MOSUNNY   59  50  72 SW7       29.99F
MANITOWOC      SUNNY     61  47  59 W8        30.00F
APPLETON       MOSUNNY   55  46  71 W9        30.00F
CLINTONVILLE   MOSUNNY   59  46  63 W8        29.98F
OSHKOSH        PTSUNNY   60  49  66 VRB6      30.00F
$$

WIZ032>034-041-042-053>061-171600-
SOUTHWEST WISCONSIN

CITY           SKY/WX    TMP DP  RH WIND       PRES   REMARKS
LA CROSSE      PTSUNNY   57  50  77 SE6       30.00S
SPARTA         CLOUDY    54  47  77 CALM      30.01F
VIROQUA        CLOUDY    57  48  72 CALM      30.01S
BOSCOBEL       CLOUDY    53  49  86 VRB3      30.02F
PRAIRIE DU CHI MOSUNNY   55  49  82 CALM      30.01S
PLATTEVILLE    FAIR      59  49  69 CALM      30.03S
$$

WIZ056-057-062-063-064-067-068-171600-
SOUTH CENTRAL WISCONSIN

CITY           SKY/WX    TMP DP  RH WIND       PRES   REMARKS
BARABOO/DELLS  PTSUNNY   58  45  62 SW7       30.02S
LONE ROCK      CLOUDY    56  48  74 CALM      30.02F
WATERTOWN      SUNNY     58  49  72 CALM      30.02S
MADISON        PTSUNNY   59  46  62 CALM      30.02F
MIDDLETON      CLOUDY    62  47  58 CALM      30.02F
MONROE         SUNNY     61  45  55 SW6       30.02S
JANESVILLE     SUNNY     59  48  67 CALM      30.02F
$$

WIZ051-052-058>065-066-070>072-171600-
SOUTHEAST WISCONSIN

CITY           SKY/WX    TMP DP  RH WIND       PRES   REMARKS
MILWAUKEE      MOSUNNY   61  43  51 W6        30.03F
WAUKESHA       SUNNY     57  46  67 SW3       30.03F
MILWAUKEE/TIMM SUNNY     61  45  55 SW5       30.03F
RACINE         SUNNY     61  46  57 VRB3      30.04F
BURLINGTON     SUNNY     58  49  71 CALM      30.02S
KENOSHA        SUNNY     61  47  59 SW3       30.03F
FOND DU LAC    SUNNY     58  47  66 SW7       30.01F
SHEBOYGAN      SUNNY     62  45  53 W7        30.01F
WEST BEND      SUNNY     61  43  51 W10       30.02S
JUNEAU         SUNNY     56  47  71 SW5       30.03F
$$

LSZ147-162-171600-
LAKE SUPERIOR

STATION/POSITION TIME  TEMP    WIND        PRES    WAVE
                       AIR SEA DIR/SP/G            HT/PER
                 (UTC) (F)     (DEG/KT/KT) (MB)    (FT/S)
W MID LAKE BUOY  1450   46 46   60/ 14/ 16 1014.6R   2/ 4
DEVILS ISLAND    1500   50      30/  8/  9 1014.6R
PORT WING        1400   53     360/  4/ 22 1014.9R
SAXON HARBOR     1400   55      CALM  /  2 1014.6
$$

LMZ867-665-643>646-171600-
LAKE MICHIGAN

STATION/POSITION TIME  TEMP    WIND        PRES    WAVE
                       AIR SEA DIR/SP/G            HT/PER
                 (UTC) (F)     (DEG/KT/KT) (MB)    (FT/S)
N MID LAKE BUOY  1450   57 58  250/ 12/ 14 1015.0S   2/ 4
NORTHPORT PIER   1400   58     260/  4/ 10 1015.2S
KEWAUNEE LAKESHO 1400   57     260/  6/ 11 1015.0S
SHEBOYGAN LAKESH 1500   60 52  240/  9/ 10 1016.4F
PORT WASHINGTON  1400   60     250/  6/  9 1017.3
ATWATER BUOY     1500   60     250/  8/ 10 1017.5F
MILWAUKEE LAKESH 1400   57     250/  5/  7   N/A
S MID LAKE BUOY  1450   61 65  260/  8/ 10 1016.9F   1/ 3
KENOSHA   LAKESH 1500   61     310/  6/  7 1016.6F
$$

TC  - TEMPERATURE IN CELSIUS
VSB - VISIBILITY IN STATUTE MILES
WCI - WIND CHILL INDEX
HX  - HEAT INDEX




USA.gov is the U.S. government's official web portal to all federal, state and local government web resources and services.